FW4237 Weather Reports


time (UTC)temp
F
wind
direction
speed
knots
gust
knots
rain 1hr
in
rain 24hr
in
rain mn
in
humidity
%
barometer
mb
20260502183548 60 314 3.5 4.3 0.00 0.00 0.00 46 1011.1
20260502182545 61 205 6.1 7.0 0.00 0.00 0.00 42 1011.4
20260502181545 59 267 8.7 8.7 0.00 0.00 0.00 41 1011.4
20260502180540 59 277 2.6 2.6 0.00 0.00 0.00 42 1011.4
20260502163524 56 250 7.0 7.8 0.00 0.00 0.00 48 1012.8
20260502162523 55 245 4.3 8.7 0.00 0.00 0.00 48 1012.8
20260502161522 56 268 7.8 7.8 0.00 0.00 0.00 45 1013.6
20260502160522 55 255 4.3 6.1 0.00 0.00 0.00 49 1013.6
20260502151414 53 276 4.3 5.2 0.00 0.00 0.00 51 1013.6
20260502150414 54 276 2.6 4.3 0.00 0.00 0.00 50 1013.6
20260502130352 51 313 3.5 4.3 0.00 0.00 0.00 52 1013.6
20260502123352 50 351 3.5 4.3 0.00 0.00 0.00 53 1013.2
20260502122351 50 272 0.9 0.9 0.00 0.00 0.00 58 1013.2
20260502121347 50 296 0.9 0.9 0.00 0.00 0.00 54 1013.2
20260502120346 49 293 0.9 0.9 0.00 0.00 0.00 59 1012.8
20260502115341 50 260 2.6 2.6 0.00 0.00 0.00 59 1012.8
20260502114340 50 316 1.7 1.7 0.00 0.00 0.00 57 1012.4
20260502113340 50 285 2.6 2.6 0.00 0.00 0.00 58 1012.4
20260502112335 50 284 2.6 2.6 0.00 0.00 0.00 58 1012.1
20260502111331 50 343 0.9 1.7 0.00 0.00 0.00 57 1012.1
20260502110326 50 283 0.9 0.9 0.00 0.00 0.00 57 1012.4
20260502105325 50 276 1.7 1.7 0.00 0.00 0.00 56 1012.4
20260502104320 50 253 1.7 1.7 0.00 0.00 0.00 57 1012.4
20260502103315 50 306 0.9 0.9 0.00 0.00 0.00 57 1012.4
20260502102314 50 308 1.7 1.7 0.00 0.00 0.00 58 1012.4
20260502101310 51 283 0.9 0.9 0.00 0.00 0.00 58 1012.4
20260502100307 51 283 0.9 0.9 0.00 0.00 0.00 59 1012.1
20260502091252 52 318 13.0 15.6 0.00 0.00 0.00 52 1011.8
20260502090252 52 302 6.1 7.0 0.00 0.00 0.00 56 1011.8
20260502071222 53 311 13.0 17.4 0.00 0.00 0.00 63 1011.1
20260502070217 53 269 6.1 8.7 0.00 0.00 0.00 64 1011.1
20260502065213 53 286 7.0 7.8 0.00 0.00 0.00 63 1011.4
20260502064214 54 266 4.3 6.1 0.00 0.00 0.00 63 1011.4
20260502063209 54 304 2.6 4.3 0.00 0.00 0.00 62 1011.8
20260502062209 54 271 6.1 8.7 0.00 0.00 0.00 61 1011.8
20260502061204 54 329 7.8 9.6 0.00 0.00 0.00 62 1011.4
20260502060202 54 300 3.5 5.2 0.00 0.00 0.00 62 1011.8
20260502055158 55 322 7.8 9.6 0.00 0.00 0.00 61 1011.8
20260502054154 55 311 6.1 7.0 0.00 0.00 0.00 60 1011.4
20260502053154 55 295 7.8 9.6 0.00 0.00 0.00 59 1011.8
20260502052150 55 311 5.2 7.0 0.00 0.00 0.00 62 1011.8
20260502051146 55 266 8.7 11.3 0.00 0.00 0.00 60 1011.8
20260502050144 56 267 11.3 15.6 0.00 0.00 0.00 60 1011.8
20260502045139 56 303 9.6 12.2 0.00 0.00 0.00 61 1011.8
20260502044137 56 332 7.8 9.6 0.00 0.00 0.00 61 1011.8
20260502043132 57 283 13.0 15.6 0.00 0.00 0.00 62 1011.8
20260502042129 57 303 8.7 13.0 0.00 0.00 0.00 63 1011.8
20260502041129 57 292 8.7 12.2 0.00 0.00 0.00 63 1011.8
20260502040129 57 323 7.0 8.7 0.00 0.00 0.00 64 1011.8
20260502035128 57 317 10.4 13.0 0.00 0.00 0.00 63 1011.8
20260502034124 58 292 5.2 6.1 0.00 0.00 0.00 63 1011.8
20260502033119 57 318 2.6 5.2 0.00 0.00 0.00 65 1011.8
20260502032117 54 299 3.5 6.1 0.00 0.00 0.00 73 1011.8
20260502031113 52 316 1.7 1.7 0.00 0.00 0.00 87 1011.8
20260502030109 52 316 0.9 1.7 0.00 0.00 0.00 86 1011.8
20260502025104 51 316 0.0 0.0 0.00 0.00 0.00 85 1011.8
20260502024059 51 316 0.0 0.0 0.00 0.00 0.00 85 1011.4
20260502023100 52 316 0.9 0.9 0.00 0.00 0.00 85 1011.4
20260502022100 52 316 0.0 0.0 0.00 0.00 0.00 85 1011.1
20260502021059 52 316 0.0 0.0 0.00 0.00 0.00 83 1010.8
20260502020059 53 317 1.7 1.7 0.00 0.00 0.00 81 1011.1
20260502015059 52 316 0.0 0.0 0.00 0.00 0.00 81 1011.1
20260502014059 52 316 0.0 0.0 0.00 0.00 0.00 81 1010.8
20260502013057 53 316 1.7 1.7 0.00 0.00 0.00 79 1010.8
20260502012052 53 316 0.0 0.0 0.00 0.00 0.00 78 1010.8
20260502011051 54 316 0.0 0.0 0.00 0.00 0.00 78 1010.8
20260502010050 54 316 0.0 0.0 0.00 0.00 0.00 77 1010.8
20260502005046 54 316 0.0 0.9 0.00 0.00 0.00 76 1010.1
20260502004044 55 316 1.7 1.7 0.00 0.00 0.00 75 1010.1
20260502003039 57 316 0.9 0.9 0.00 0.00 0.00 71 1010.1
20260502002038 59 312 1.7 1.7 0.00 0.00 0.00 68 1010.1
20260502001033 60 310 0.0 0.0 0.00 0.00 0.00 67 1009.6
20260502000028 61 308 0.0 0.9 0.00 0.00 0.00 60 1009.6
20260501235025 62 305 0.9 0.9 0.00 0.00 0.00 57 1009.6
20260501234025 62 284 0.0 0.9 0.00 0.00 0.00 53 1009.6
20260501233020 63 294 0.9 1.7 0.00 0.00 0.00 53 1009.3
20260501232019 63 297 0.0 0.0 0.00 0.00 0.00 54 1009.6
20260501231015 64 308 1.7 1.7 0.00 0.00 0.00 51 1009.3
20260501230011 64 309 0.0 0.0 0.00 0.00 0.00 55 1009.3
20260501225010 64 277 0.0 0.0 0.00 0.00 0.00 57 1009.3
20260501224010 64 278 0.0 0.9 0.00 0.00 0.00 53 1009.3
20260501223009 64 282 0.0 0.0 0.00 0.00 0.00 51 1009.3
20260501222008 65 265 0.9 1.7 0.00 0.00 0.00 48 1009.3
20260501221003 67 79 1.7 2.6 0.00 0.00 0.00 47 1009.6
20260501220002 66 269 1.7 1.7 0.00 0.00 0.00 46 1009.3
20260501215000 65 312 2.6 2.6 0.00 0.00 0.00 47 1009.3
20260501213958 67 262 1.7 1.7 0.00 0.00 0.00 46 1009.6
20260501212955 66 274 1.7 1.7 0.00 0.00 0.00 45 1009.6
20260501211955 68 276 0.0 0.9 0.00 0.00 0.00 46 1009.6
20260501210950 67 30 2.6 2.6 0.00 0.00 0.00 45 1009.6
20260501205949 67 254 3.5 4.3 0.00 0.00 0.00 44 1010.1
20260501204949 67 288 0.9 1.7 0.00 0.00 0.00 47 1010.4
20260501203947 68 256 2.6 2.6 0.00 0.00 0.00 44 1010.1
20260501202947 67 152 2.6 7.0 0.00 0.00 0.00 45 1010.4
20260501201946 66 267 0.9 1.7 0.00 0.00 0.00 45 1010.4
20260501200946 65 143 1.7 1.7 0.00 0.00 0.00 48 1011.1
20260501195946 67 265 2.6 2.6 0.00 0.00 0.00 47 1010.8
20260501194945 65 283 0.9 0.9 0.00 0.00 0.00 50 1011.1
20260501193942 65 289 2.6 5.2 0.00 0.00 0.00 45 1011.4
20260501192938 65 281 2.6 4.3 0.00 0.00 0.00 47 1011.4
20260501191938 64 318 1.7 1.7 0.00 0.00 0.00 46 1012.1
20260501190938 65 352 2.6 2.6 0.00 0.00 0.00 46 1011.8
20260501185934 64 292 0.9 0.9 0.00 0.00 0.00 49 1011.8
20260501184933 63 229 2.6 2.6 0.00 0.00 0.00 45 1012.1
20260501183930 64 265 2.6 7.0 0.00 0.00 0.00 52 1012.1